TimeEDT,TemperatureF,Dew PointF,Humidity,Sea Level PressureIn,VisibilityMPH,Wind Direction,Wind SpeedMPH,Gust SpeedMPH,PrecipitationIn,Events,Conditions,WindDirDegrees,DateUTC
12:13 AM,44.6,42.8,93,29.83,5.0,WNW,8.1,-,0.00,Rain,Light Rain,300,2012-10-16 04:13:00
12:44 AM,44.6,42.8,93,29.83,8.0,West,6.9,-,0.01,,Overcast,280,2012-10-16 04:44:00
12:56 AM,44.1,42.1,93,29.84,8.0,WNW,9.2,-,0.01,Rain,Light Rain,290,2012-10-16 04:56:00
1:04 AM,44.6,42.8,93,29.84,10.0,West,10.4,-,0.01,,Overcast,280,2012-10-16 05:04:00
1:19 AM,44.6,42.8,93,29.84,6.0,WNW,9.2,-,0.01,,Overcast,290,2012-10-16 05:19:00
1:48 AM,44.6,42.8,93,29.84,9.0,West,10.4,-,0.01,,Overcast,280,2012-10-16 05:48:00
1:56 AM,44.1,42.1,93,29.85,8.0,West,9.2,-,0.01,Rain,Light Rain,280,2012-10-16 05:56:00
2:33 AM,44.6,41.0,87,29.85,10.0,WNW,10.4,-,0.01,Rain,Light Rain,290,2012-10-16 06:33:00
2:44 AM,44.6,41.0,87,29.85,8.0,WNW,10.4,-,0.01,Rain,Light Rain,290,2012-10-16 06:44:00
2:56 AM,44.1,42.1,93,29.86,8.0,WNW,8.1,-,0.02,Rain,Light Rain,300,2012-10-16 06:56:00
3:56 AM,44.1,42.1,93,29.85,5.0,NNW,4.6,-,0.02,,Overcast,330,2012-10-16 07:56:00
4:56 AM,43.0,41.0,93,29.87,8.0,NW,5.8,-,0.01,,Overcast,320,2012-10-16 08:56:00
5:35 AM,42.8,41.0,93,29.86,8.0,NW,5.8,-,N/A,,Overcast,310,2012-10-16 09:35:00
5:42 AM,42.8,41.0,93,29.86,10.0,NW,4.6,-,N/A,,Overcast,320,2012-10-16 09:42:00
6:49 AM,42.8,41.0,93,29.88,10.0,WNW,6.9,-,0.01,,Overcast,300,2012-10-16 10:49:00
7:24 AM,42.8,41.0,93,29.88,10.0,West,5.8,-,N/A,,Overcast,280,2012-10-16 11:24:00
7:33 AM,42.8,41.0,93,29.88,7.0,WNW,5.8,-,N/A,,Overcast,290,2012-10-16 11:33:00
7:52 AM,42.8,41.0,93,29.89,10.0,West,5.8,-,N/A,,Overcast,280,2012-10-16 11:52:00
8:25 AM,42.8,41.0,93,29.90,10.0,West,8.1,-,N/A,,Overcast,270,2012-10-16 12:25:00
8:33 AM,42.8,41.0,93,29.90,10.0,West,8.1,-,N/A,,Overcast,260,2012-10-16 12:33:00
8:56 AM,43.0,41.0,93,29.93,10.0,WNW,9.2,-,N/A,,Overcast,290,2012-10-16 12:56:00
9:34 AM,44.6,41.0,87,29.92,10.0,West,8.1,-,N/A,,Overcast,270,2012-10-16 13:34:00
9:56 AM,44.1,39.9,85,29.95,10.0,West,10.4,-,N/A,,Overcast,260,2012-10-16 13:56:00
10:49 AM,44.6,39.2,81,29.92,10.0,West,9.2,-,N/A,,Overcast,270,2012-10-16 14:49:00
10:56 AM,45.0,39.9,82,29.94,10.0,West,10.4,-,N/A,,Overcast,270,2012-10-16 14:56:00
12:56 PM,46.0,36.0,68,29.95,10.0,WNW,10.4,-,N/A,,Overcast,300,2012-10-16 16:56:00
1:25 PM,46.4,37.4,71,29.92,10.0,West,9.2,-,N/A,,Overcast,280,2012-10-16 17:25:00
1:34 PM,46.4,37.4,71,29.92,10.0,NW,8.1,-,N/A,,Overcast,310,2012-10-16 17:34:00
1:41 PM,46.4,37.4,71,29.91,10.0,NW,6.9,-,N/A,,Overcast,320,2012-10-16 17:41:00
1:56 PM,48.0,37.0,66,29.93,10.0,NW,10.4,-,N/A,,Overcast,310,2012-10-16 17:56:00
2:56 PM,48.9,36.0,61,29.92,10.0,WNW,6.9,-,N/A,,Overcast,300,2012-10-16 18:56:00
3:56 PM,52.0,36.0,54,29.90,10.0,WNW,6.9,-,N/A,,Partly Cloudy,290,2012-10-16 19:56:00
4:56 PM,52.0,35.1,53,29.88,10.0,West,9.2,-,N/A,,Clear,280,2012-10-16 20:56:00
5:56 PM,50.0,35.1,57,29.87,10.0,West,6.9,-,N/A,,Clear,270,2012-10-16 21:56:00
7:56 PM,42.1,35.1,76,29.91,10.0,SW,3.5,-,N/A,,Clear,220,2012-10-16 23:56:00
8:56 PM,42.1,35.1,76,29.92,10.0,SSW,3.5,-,N/A,,Clear,210,2012-10-17 00:56:00
9:56 PM,43.0,35.1,74,29.91,10.0,Calm,Calm,-,N/A,,Clear,0,2012-10-17 01:56:00
10:56 PM,39.0,34.0,82,29.92,10.0,Calm,Calm,-,N/A,,Clear,0,2012-10-17 02:56:00
11:56 PM,39.9,35.1,83,29.93,10.0,SE,3.5,-,N/A,,Clear,130,2012-10-17 03:56:00